カタログに戻る

YZ-1 R/B

運用中MEO
NORAD 43650·ROCKET BODY·🇨🇳 China

打ち上げ Oct 15, 2018 から Xichang Satellite Launch Center

Loading…

次のパス (今後24時間)

TLE

最新Source: Space-Track

元期: Sep 14, 2026, 06:39 UTC

1 43650U 18078D   26257.27718904 -.00000060  00000-0  00000-0 0  9999
2 43650  53.9424 306.0360 0106592  66.1351 295.0435  1.77586592 51341

AllMySatでYZ-1 R/Bをリアルタイム追跡

Download on the App Store